Weather in Sur

Oman     22°34′03″N   59°31′40″E
temp.,
°C
wind,
m/s
gust,
m/s
humid.,
%
clouds,
%
prec.,
mm/h
press.,
hPa
HPBL,
m
16 may, sun
sun1601:00+31ssw55463 0.0 100272
04:00+30wsw224785 0.0 100228
07:00+30nnw23590 0.0 1005190
10:00+35nne33350 0.0 1005748
13:00+35n553413 0.0 1004601
16:00+34nne453317 0.0 1003451
19:00+31n34501 0.0 1004148
22:00+30ne11490 0.0 100511
17 may, mon
mon1701:00+30ssw33390 0.0 100312
04:00+29ssw33330 0.0 100319
07:00+32w12262 0.0 100558
10:00+36n45230 0.0 1006521
13:00+36nne56280 0.0 1004596
16:00+35nne56260 0.0 1002436
19:00+32n22350 0.0 100328
22:00+31ssw12315 0.0 100411
18 may, tue
tue1801:00+33sw43205 0.0 100115
04:00+30sw22280 0.0 100116
07:00+31nnw35453 0.0 1004193
10:00+34n45363 0.0 1005446
13:00+37nne34215 0.0 1003713
16:00+35n56294 0.0 1001406
19:00+33e22354 0.0 100317
22:00+31ssw45393 0.0 100457
19 may, wed
wed1901:00+31sw44335 0.0 100239
04:00+30n234415 0.0 100225
07:00+33sw33285 0.0 1004101
10:00+38e12185 0.0 10031048
13:00+38nne66252 0.0 10021043
16:00+34nne45321 0.0 1002493
19:00+33ese11355 0.0 100220
22:00+33sw553589 0.0 100356
20 may, thu
thu2001:00+33sw5535100 0.0 100149
04:00+32wsw553421 0.0 100141
07:00+34sw2234100 0.0 100382
10:00+38sse232238 0.0 1004972
13:00+41e441892 0.0 10012277
16:00+40e441899 0.0 10001009
19:00+35sse012732 0.0 100112
22:00+34sw33346 0.0 100319